Time,TemperatureF,DewpointF,PressureIn,WindDirection,WindDirectionDegrees,WindSpeedMPH,WindSpeedGustMPH,Humidity,HourlyPrecipIn,Conditions,Clouds,dailyrainin,SoftwareType,DateUTC
2013-03-09 10:42:00,48.2,1.2,30.03,East,84,4.0,4.0,14,0.08,,,0.12,VWS V14.00,2013-03-09 15:42:00,
2013-03-09 10:43:00,48.2,1.2,30.03,East,79,3.6,4.0,14,0.08,,,0.12,VWS V14.00,2013-03-09 15:43:00,
2013-03-09 10:48:00,48.4,1.4,30.03,North,6,3.6,4.0,14,0.08,,,0.12,VWS V14.00,2013-03-09 15:48:00,
2013-03-09 10:53:00,48.7,1.7,30.03,North,356,0.0,3.1,14,0.08,,,0.12,VWS V14.00,2013-03-09 15:53:00,
2013-03-09 10:58:00,48.9,1.8,30.03,NE,47,4.5,4.5,14,0.04,,,0.12,VWS V14.00,2013-03-09 15:58:00,
2013-03-09 11:03:00,49.1,-3.1,30.03,ESE,109,0.0,0.0,11,0.04,,,0.12,VWS V14.00,2013-03-09 16:03:00,
2013-03-09 11:08:00,49.5,-2.9,30.06,WSW,252,3.1,4.5,11,0.08,,,0.16,VWS V14.00,2013-03-09 16:08:00,
2013-03-09 11:13:00,49.8,-2.6,30.06,NW,312,0.0,2.7,11,0.08,,,0.16,VWS V14.00,2013-03-09 16:13:00,
2013-03-09 11:18:00,50.2,-2.3,30.06,ENE,63,4.5,4.5,11,0.08,,,0.16,VWS V14.00,2013-03-09 16:18:00,
2013-03-09 11:23:00,50.2,-2.3,30.03,NE,38,2.7,3.1,11,0.08,,,0.16,VWS V14.00,2013-03-09 16:23:00,
2013-03-09 11:28:00,50.7,-1.9,30.03,ESE,107,4.0,5.4,11,0.08,,,0.16,VWS V14.00,2013-03-09 16:28:00,
2013-03-09 11:33:00,50.9,-1.7,30.03,ENE,70,3.1,3.6,11,0.04,,,0.16,VWS V14.00,2013-03-09 16:33:00,
2013-03-09 11:38:00,51.3,-1.5,30.03,NE,52,0.0,4.9,11,0.04,,,0.16,VWS V14.00,2013-03-09 16:38:00,
2013-03-09 11:43:00,51.4,-1.3,30.03,ENE,63,2.7,3.6,11,0.04,,,0.16,VWS V14.00,2013-03-09 16:43:00,
2013-03-09 11:48:00,51.8,-1.0,30.03,NE,35,3.6,3.6,11,0.04,,,0.16,VWS V14.00,2013-03-09 16:48:00,
2013-03-09 11:53:00,52.2,-0.8,30.03,NW,312,0.0,4.0,11,0.08,,,0.20,VWS V14.00,2013-03-09 16:53:00,
2013-03-09 11:58:00,52.3,-0.6,30.03,ENE,65,4.0,5.8,11,0.08,,,0.20,VWS V14.00,2013-03-09 16:58:00,
2013-03-09 12:04:00,52.3,-0.6,30.03,NNW,347,4.0,4.0,11,0.08,,CLR,0.20,VWS V14.00,2013-03-09 17:04:00,
2013-03-09 12:09:00,52.5,-0.5,30.03,WNW,299,0.0,3.6,11,0.04,,CLR,0.20,VWS V14.00,2013-03-09 17:09:00,
2013-03-09 12:14:00,53.1,-2.1,30.03,NW,312,0.0,4.0,10,0.04,,CLR,0.20,VWS V14.00,2013-03-09 17:14:00,
2013-03-09 12:19:00,53.1,-2.1,30.03,East,89,4.0,4.5,10,0.04,,CLR,0.20,VWS V14.00,2013-03-09 17:19:00,
2013-03-09 12:24:00,52.9,-2.2,30.03,NE,40,0.0,3.6,10,0.04,,CLR,0.20,VWS V14.00,2013-03-09 17:24:00,
2013-03-09 12:29:00,53.4,-1.8,30.03,ESE,107,0.0,3.6,10,0.04,,CLR,0.20,VWS V14.00,2013-03-09 17:29:00,
2013-03-09 12:34:00,53.8,-1.5,30.03,West,274,0.0,0.0,10,0.04,,CLR,0.20,VWS V14.00,2013-03-09 17:34:00,
2013-03-09 12:39:00,54.1,-1.2,30.03,NE,53,2.7,3.6,10,0.04,,CLR,0.20,VWS V14.00,2013-03-09 17:39:00,
2013-03-09 12:44:00,54.5,-0.9,30.03,NNE,26,0.0,4.5,10,0.04,,CLR,0.20,VWS V14.00,2013-03-09 17:44:00,
2013-03-09 12:49:00,54.7,-0.8,30.03,ESE,103,2.7,4.0,10,0.04,,CLR,0.20,VWS V14.00,2013-03-09 17:49:00,
2013-03-09 12:54:00,54.9,-0.7,30.03,ENE,73,3.6,4.5,10,0.00,,CLR,0.20,VWS V14.00,2013-03-09 17:54:00,
2013-03-09 12:59:00,54.9,-0.7,30.03,East,86,3.1,3.1,10,0.00,,CLR,0.20,VWS V14.00,2013-03-09 17:59:00,
2013-03-09 13:04:00,55.2,-0.4,30.03,SSE,163,0.0,0.0,10,0.00,,CLR,0.20,VWS V14.00,2013-03-09 18:04:00,
2013-03-09 13:09:00,55.6,-0.1,30.03,NNE,33,3.1,4.5,10,0.00,,CLR,0.20,VWS V14.00,2013-03-09 18:09:00,
2013-03-09 13:14:00,55.8,0.0,30.03,NNW,343,4.0,4.0,10,0.00,,CLR,0.20,VWS V14.00,2013-03-09 18:14:00,
2013-03-09 13:19:00,55.8,0.0,30.03,East,86,2.7,4.9,10,0.00,,CLR,0.20,VWS V14.00,2013-03-09 18:19:00,
2013-03-09 13:24:00,55.8,0.0,30.00,NNE,29,2.7,4.5,10,0.00,,CLR,0.20,VWS V14.00,2013-03-09 18:24:00,
2013-03-09 13:29:00,55.6,-0.1,30.00,NNE,23,2.7,6.7,10,0.00,,CLR,0.20,VWS V14.00,2013-03-09 18:29:00,
2013-03-09 13:34:00,55.6,-0.1,30.00,ENE,75,2.7,5.4,10,0.00,,CLR,0.20,VWS V14.00,2013-03-09 18:34:00,
2013-03-09 13:39:00,55.8,0.0,30.00,SSE,149,2.7,5.8,10,0.00,,CLR,0.20,VWS V14.00,2013-03-09 18:39:00,
2013-03-09 13:44:00,55.8,0.0,30.00,ENE,72,3.6,4.0,10,0.00,,CLR,0.20,VWS V14.00,2013-03-09 18:44:00,
2013-03-09 13:49:00,55.8,0.0,30.00,NE,34,3.6,5.8,10,0.00,,CLR,0.20,VWS V14.00,2013-03-09 18:49:00,
2013-03-09 13:54:00,55.8,0.0,30.00,East,100,3.6,5.8,10,0.00,,CLR,0.20,VWS V14.00,2013-03-09 18:54:00,
2013-03-09 13:59:00,55.8,0.0,30.00,NW,307,2.7,5.4,10,0.00,,CLR,0.20,VWS V14.00,2013-03-09 18:59:00,
2013-03-09 14:04:00,56.1,0.3,30.00,North,7,0.0,4.9,10,0.00,,CLR,0.20,VWS V14.00,2013-03-09 19:04:00,
2013-03-09 14:09:00,56.1,0.3,30.00,NNW,336,0.0,4.0,10,0.00,,CLR,0.20,VWS V14.00,2013-03-09 19:09:00,
2013-03-09 14:14:00,56.1,0.3,30.00,SW,236,0.0,0.0,10,0.00,,CLR,0.20,VWS V14.00,2013-03-09 19:14:00,
2013-03-09 14:19:00,56.1,0.3,30.00,ENE,59,3.6,4.9,10,0.00,,CLR,0.20,VWS V14.00,2013-03-09 19:19:00,
2013-03-09 14:24:00,55.8,0.0,30.00,ESE,121,4.0,4.5,10,0.00,,CLR,0.20,VWS V14.00,2013-03-09 19:24:00,
2013-03-09 14:29:00,55.8,0.0,30.00,ESE,107,3.1,4.5,10,0.00,,CLR,0.20,VWS V14.00,2013-03-09 19:29:00,
2013-03-09 14:34:00,55.6,-0.1,30.00,ENE,70,4.0,4.9,10,0.00,,CLR,0.20,VWS V14.00,2013-03-09 19:34:00,
2013-03-09 14:39:00,55.6,-0.1,30.00,NE,35,0.0,3.6,10,0.00,,CLR,0.20,VWS V14.00,2013-03-09 19:39:00,
2013-03-09 14:44:00,55.6,-0.1,30.00,ENE,74,4.5,4.5,10,0.00,,CLR,0.20,VWS V14.00,2013-03-09 19:44:00,
2013-03-09 14:49:00,55.6,-0.1,30.00,SE,135,3.6,4.0,10,0.00,,CLR,0.20,VWS V14.00,2013-03-09 19:49:00,
2013-03-09 14:54:00,55.4,-0.3,30.00,East,85,4.0,4.0,10,0.00,,CLR,0.20,VWS V14.00,2013-03-09 19:54:00,
2013-03-09 14:59:00,55.4,-0.3,30.00,NE,45,5.4,5.4,10,0.00,,CLR,0.20,VWS V14.00,2013-03-09 19:59:00,
2013-03-09 15:04:00,55.4,-0.3,30.00,East,92,0.0,3.6,10,0.00,,CLR,0.20,VWS V14.00,2013-03-09 20:04:00,
2013-03-09 15:09:00,55.4,-0.3,30.00,ESE,105,2.7,3.1,10,0.00,,CLR,0.20,VWS V14.00,2013-03-09 20:09:00,
2013-03-09 15:14:00,55.6,-0.1,30.00,ESE,104,3.6,4.0,10,0.00,,CLR,0.20,VWS V14.00,2013-03-09 20:14:00,
2013-03-09 15:19:00,55.4,-0.3,30.00,ENE,67,4.0,4.0,10,0.00,,CLR,0.20,VWS V14.00,2013-03-09 20:19:00,
2013-03-09 15:24:00,55.2,-0.4,30.00,East,97,2.7,3.1,10,0.00,,CLR,0.20,VWS V14.00,2013-03-09 20:24:00,
2013-03-09 15:29:00,55.0,-0.5,30.00,SE,129,0.0,4.9,10,0.00,,CLR,0.20,VWS V14.00,2013-03-09 20:29:00,
2013-03-09 15:34:00,55.0,-0.5,30.00,ENE,69,2.7,3.6,10,0.00,,CLR,0.20,VWS V14.00,2013-03-09 20:34:00,
2013-03-09 15:39:00,55.0,-0.5,30.03,East,85,3.1,3.6,10,0.00,,CLR,0.20,VWS V14.00,2013-03-09 20:39:00,
2013-03-09 15:44:00,55.2,-0.4,30.03,ESE,107,3.1,3.1,10,0.00,,CLR,0.20,VWS V14.00,2013-03-09 20:44:00,
2013-03-09 15:49:00,55.0,-0.5,30.03,East,79,3.1,4.5,10,0.00,,CLR,0.20,VWS V14.00,2013-03-09 20:49:00,
2013-03-09 15:54:00,55.0,-0.5,30.03,East,81,2.7,3.1,10,0.00,,CLR,0.20,VWS V14.00,2013-03-09 20:54:00,
2013-03-09 15:59:00,54.9,-0.7,30.03,NE,37,0.0,4.5,10,0.00,,CLR,0.20,VWS V14.00,2013-03-09 20:59:00,
2013-03-09 16:04:00,54.9,-0.7,30.03,East,94,0.0,0.0,10,0.00,,CLR,0.20,VWS V14.00,2013-03-09 21:04:00,
2013-03-09 16:09:00,54.5,-0.9,30.03,ENE,77,3.6,3.6,10,0.00,,CLR,0.20,VWS V14.00,2013-03-09 21:09:00,
2013-03-09 16:14:00,54.5,-0.9,30.03,East,100,3.1,3.1,10,0.00,,CLR,0.20,VWS V14.00,2013-03-09 21:14:00,
2013-03-09 16:19:00,54.5,-0.9,30.03,ENE,62,0.0,0.0,10,0.00,,CLR,0.20,VWS V14.00,2013-03-09 21:19:00,
2013-03-09 16:24:00,54.3,-1.1,30.03,East,83,2.7,3.1,10,0.00,,CLR,0.20,VWS V14.00,2013-03-09 21:24:00,
2013-03-09 16:29:00,54.1,-1.2,30.03,East,98,0.0,2.7,10,0.00,,CLR,0.20,VWS V14.00,2013-03-09 21:29:00,
2013-03-09 16:34:00,54.0,-1.4,30.03,ENE,72,0.0,2.7,10,0.00,,CLR,0.20,VWS V14.00,2013-03-09 21:34:00,
2013-03-09 16:39:00,54.0,-1.4,30.03,East,94,0.0,0.0,10,0.00,,CLR,0.20,VWS V14.00,2013-03-09 21:39:00,
2013-03-09 16:44:00,53.8,-1.5,30.03,East,93,0.0,0.0,10,0.00,,CLR,0.20,VWS V14.00,2013-03-09 21:44:00,
2013-03-09 16:49:00,53.6,-1.6,30.03,East,83,0.0,0.0,10,0.00,,CLR,0.20,VWS V14.00,2013-03-09 21:49:00,
2013-03-09 16:54:00,53.6,-1.6,30.03,East,83,0.0,0.0,10,0.00,,CLR,0.20,VWS V14.00,2013-03-09 21:54:00,
2013-03-09 16:59:00,53.4,-1.8,30.03,East,83,0.0,0.0,10,0.00,,CLR,0.20,VWS V14.00,2013-03-09 21:59:00,
2013-03-09 17:04:00,53.2,-1.9,30.03,East,83,0.0,0.0,10,0.00,,CLR,0.20,VWS V14.00,2013-03-09 22:04:00,
2013-03-09 17:09:00,53.1,-2.1,30.03,East,83,0.0,0.0,10,0.00,,CLR,0.20,VWS V14.00,2013-03-09 22:09:00,
2013-03-09 17:14:00,52.9,-2.2,30.03,ESE,103,0.0,0.0,10,0.00,,CLR,0.20,VWS V14.00,2013-03-09 22:14:00,
2013-03-09 17:19:00,52.5,-0.5,30.03,ESE,103,0.0,0.0,11,0.00,,CLR,0.20,VWS V14.00,2013-03-09 22:19:00,
2013-03-09 17:24:00,52.3,-0.6,30.03,ESE,103,0.0,0.0,11,0.00,,CLR,0.20,VWS V14.00,2013-03-09 22:24:00,
2013-03-09 17:29:00,52.0,-0.9,30.03,ESE,103,0.0,0.0,11,0.00,,CLR,0.20,VWS V14.00,2013-03-09 22:29:00,
2013-03-09 17:34:00,51.6,-1.2,30.03,ESE,103,0.0,0.0,11,0.00,,CLR,0.20,VWS V14.00,2013-03-09 22:34:00,
2013-03-09 17:39:00,51.3,-1.5,30.03,ESE,103,0.0,0.0,11,0.00,,CLR,0.20,VWS V14.00,2013-03-09 22:39:00,
2013-03-09 17:44:00,50.9,-1.7,30.03,ESE,103,0.0,0.0,11,0.00,,CLR,0.20,VWS V14.00,2013-03-09 22:44:00,
2013-03-09 17:49:00,50.2,-2.3,30.03,ESE,103,0.0,0.0,11,0.00,,CLR,0.20,VWS V14.00,2013-03-09 22:49:00,
2013-03-09 17:54:00,49.6,-2.7,30.06,ESE,102,0.0,0.0,11,0.00,,CLR,0.20,VWS V14.00,2013-03-09 22:54:00,
2013-03-09 17:59:00,49.1,-3.1,30.06,ESE,103,0.0,0.0,11,0.00,,CLR,0.20,VWS V14.00,2013-03-09 22:59:00,
2013-03-09 18:04:00,48.6,-3.6,30.06,ESE,103,0.0,0.0,11,0.00,,CLR,0.20,VWS V14.00,2013-03-09 23:04:00,
2013-03-09 18:09:00,48.2,-3.8,30.06,ESE,103,0.0,0.0,11,0.00,,CLR,0.20,VWS V14.00,2013-03-09 23:09:00,
2013-03-09 18:14:00,47.5,0.7,30.06,ESE,103,0.0,0.0,14,0.00,,CLR,0.20,VWS V14.00,2013-03-09 23:14:00,
2013-03-09 18:19:00,46.9,0.2,30.06,ESE,103,0.0,0.0,14,0.00,,CLR,0.20,VWS V14.00,2013-03-09 23:19:00,
2013-03-09 18:24:00,46.2,-0.3,30.06,ESE,102,0.0,0.0,14,0.00,,CLR,0.20,VWS V14.00,2013-03-09 23:24:00,
2013-03-09 18:29:00,45.7,-0.8,30.06,ESE,103,0.0,0.0,14,0.00,,CLR,0.20,VWS V14.00,2013-03-09 23:29:00,
2013-03-09 18:34:00,45.3,3.1,30.06,ESE,103,0.0,0.0,17,0.00,,CLR,0.20,VWS V14.00,2013-03-09 23:34:00,
2013-03-09 18:39:00,45.0,2.8,30.06,ESE,103,0.0,0.0,17,0.00,,CLR,0.20,VWS V14.00,2013-03-09 23:39:00,
2013-03-09 18:44:00,44.6,6.0,30.06,ESE,103,0.0,0.0,20,0.00,,CLR,0.20,VWS V14.00,2013-03-09 23:44:00,
2013-03-09 18:49:00,44.2,7.8,30.06,ESE,103,0.0,0.0,22,0.00,,CLR,0.20,VWS V14.00,2013-03-09 23:49:00,
2013-03-09 18:54:00,43.7,11.9,30.06,ESE,102,0.0,0.0,27,0.00,,CLR,0.20,VWS V14.00,2013-03-09 23:54:00,
2013-03-09 18:59:00,43.3,13.2,30.06,ESE,103,0.0,0.0,29,0.00,,CLR,0.20,VWS V14.00,2013-03-09 23:59:00,
2013-03-09 19:04:00,42.6,12.6,30.06,ESE,103,0.0,0.0,29,0.00,,CLR,0.20,VWS V14.00,2013-03-10 00:04:00,
2013-03-09 19:09:00,42.3,13.1,30.06,ESE,103,0.0,0.0,30,0.00,,CLR,0.20,VWS V14.00,2013-03-10 00:09:00,
2013-03-09 19:14:00,41.7,14.1,30.06,ESE,103,0.0,0.0,32,0.00,,CLR,0.20,VWS V14.00,2013-03-10 00:14:00,
2013-03-09 19:19:00,41.2,14.3,30.06,ESE,102,0.0,0.0,33,0.00,,CLR,0.20,VWS V14.00,2013-03-10 00:19:00,
2013-03-09 19:24:00,40.8,15.9,30.06,ESE,103,0.0,0.0,36,0.00,,CLR,0.20,VWS V14.00,2013-03-10 00:24:00,
2013-03-09 19:29:00,40.6,15.8,30.06,ESE,102,0.0,0.0,36,0.00,,CLR,0.20,VWS V14.00,2013-03-10 00:29:00,
2013-03-09 19:34:00,40.5,16.3,30.06,ESE,103,0.0,0.0,37,0.00,,CLR,0.20,VWS V14.00,2013-03-10 00:34:00,
2013-03-09 19:39:00,39.9,15.1,30.09,ESE,103,0.0,0.0,36,0.00,,CLR,0.20,VWS V14.00,2013-03-10 00:39:00,
2013-03-09 19:44:00,39.7,14.3,30.09,ESE,103,0.0,0.0,35,0.00,,CLR,0.20,VWS V14.00,2013-03-10 00:44:00,
2013-03-09 19:49:00,39.6,14.8,30.09,ESE,102,0.0,0.0,36,0.00,,CLR,0.20,VWS V14.00,2013-03-10 00:49:00,
2013-03-09 19:54:00,39.4,15.3,30.09,ESE,103,0.0,0.0,37,0.00,,CLR,0.20,VWS V14.00,2013-03-10 00:54:00,
2013-03-09 19:59:00,39.2,15.1,30.09,ESE,103,0.0,0.0,37,0.00,,CLR,0.20,VWS V14.00,2013-03-10 00:59:00,
2013-03-09 20:04:00,38.8,14.8,30.09,ESE,102,0.0,0.0,37,0.00,,CLR,0.20,VWS V14.00,2013-03-10 01:04:00,
2013-03-09 20:09:00,38.8,16.0,30.09,ESE,103,0.0,0.0,39,0.00,,CLR,0.20,VWS V14.00,2013-03-10 01:09:00,
2013-03-09 20:14:00,38.8,16.0,30.09,WSW,258,0.0,2.7,39,0.00,,CLR,0.20,VWS V14.00,2013-03-10 01:14:00,
2013-03-09 20:19:00,38.7,15.9,30.09,WSW,258,0.0,0.0,39,0.00,,CLR,0.20,VWS V14.00,2013-03-10 01:19:00,
2013-03-09 20:24:00,38.7,15.9,30.09,WSW,258,0.0,0.0,39,0.00,,CLR,0.20,VWS V14.00,2013-03-10 01:24:00,
2013-03-09 20:29:00,38.5,16.3,30.09,West,259,0.0,0.0,40,0.00,,CLR,0.20,VWS V14.00,2013-03-10 01:29:00,
2013-03-09 20:34:00,38.3,16.7,30.09,West,259,0.0,0.0,41,0.00,,CLR,0.20,VWS V14.00,2013-03-10 01:34:00,
2013-03-09 20:39:00,38.1,15.9,30.09,West,259,0.0,0.0,40,0.00,,CLR,0.20,VWS V14.00,2013-03-10 01:39:00,
2013-03-09 20:44:00,37.9,15.8,30.09,South,169,2.7,3.1,40,0.00,,CLR,0.20,VWS V14.00,2013-03-10 01:44:00,
2013-03-09 20:49:00,37.8,16.2,30.09,South,173,0.0,0.0,41,0.00,,CLR,0.20,VWS V14.00,2013-03-10 01:49:00,
2013-03-09 20:54:00,37.8,16.8,30.09,SSE,160,2.7,3.1,42,0.00,,CLR,0.20,VWS V14.00,2013-03-10 01:54:00,
2013-03-09 20:59:00,37.8,16.8,30.09,SSE,161,0.0,2.7,42,0.00,,CLR,0.20,VWS V14.00,2013-03-10 01:59:00,
2013-03-09 21:04:00,37.6,16.6,30.09,SSE,161,0.0,0.0,42,0.00,,CLR,0.20,VWS V14.00,2013-03-10 02:04:00,
2013-03-09 21:09:00,37.0,16.1,30.09,SSE,161,0.0,0.0,42,0.00,,CLR,0.20,VWS V14.00,2013-03-10 02:09:00,
2013-03-09 21:14:00,36.9,15.9,30.09,SSE,161,0.0,0.0,42,0.00,,CLR,0.20,VWS V14.00,2013-03-10 02:14:00,
2013-03-09 21:19:00,36.5,15.6,30.09,SSE,161,0.0,0.0,42,0.00,,CLR,0.20,VWS V14.00,2013-03-10 02:19:00,
2013-03-09 21:24:00,36.3,16.0,30.09,SSE,161,0.0,0.0,43,0.00,,CLR,0.20,VWS V14.00,2013-03-10 02:24:00,
2013-03-09 21:29:00,36.3,15.4,30.09,SSE,161,0.0,0.0,42,0.00,,CLR,0.20,VWS V14.00,2013-03-10 02:29:00,
2013-03-09 21:34:00,36.5,16.1,30.09,SSE,161,0.0,0.0,43,0.00,,CLR,0.20,VWS V14.00,2013-03-10 02:34:00,
2013-03-09 21:39:00,36.3,16.0,30.09,SSE,161,0.0,0.0,43,0.00,,CLR,0.20,VWS V14.00,2013-03-10 02:39:00,
2013-03-09 21:44:00,36.1,16.4,30.09,SSE,161,0.0,0.0,44,0.00,,CLR,0.20,VWS V14.00,2013-03-10 02:44:00,
2013-03-09 21:49:00,36.0,16.2,30.09,SSE,161,0.0,0.0,44,0.00,,CLR,0.20,VWS V14.00,2013-03-10 02:49:00,
2013-03-09 21:54:00,35.6,16.4,30.12,WSW,251,0.0,0.0,45,0.00,,CLR,0.20,VWS V14.00,2013-03-10 02:54:00,
2013-03-09 21:59:00,35.4,15.7,30.12,WSW,251,0.0,0.0,44,0.00,,CLR,0.20,VWS V14.00,2013-03-10 02:59:00,
2013-03-09 22:04:00,35.1,15.4,30.12,WSW,251,0.0,0.0,44,0.00,,CLR,0.20,VWS V14.00,2013-03-10 03:04:00,
2013-03-09 22:09:00,35.1,15.9,30.12,WSW,251,0.0,0.0,45,0.00,,CLR,0.20,VWS V14.00,2013-03-10 03:09:00,
2013-03-09 22:14:00,35.1,15.9,30.12,WSW,251,0.0,0.0,45,0.00,,CLR,0.20,VWS V14.00,2013-03-10 03:14:00,
2013-03-09 22:19:00,34.9,15.7,30.12,WSW,246,0.0,0.0,45,0.00,,CLR,0.20,VWS V14.00,2013-03-10 03:19:00,
2013-03-09 22:24:00,34.9,15.7,30.12,WSW,246,0.0,0.0,45,0.00,,CLR,0.20,VWS V14.00,2013-03-10 03:24:00,
2013-03-09 22:29:00,34.7,16.0,30.12,WSW,246,0.0,0.0,46,0.00,,CLR,0.20,VWS V14.00,2013-03-10 03:29:00,
2013-03-09 22:34:00,34.5,16.9,30.12,WSW,246,0.0,0.0,48,0.00,,CLR,0.20,VWS V14.00,2013-03-10 03:34:00,
2013-03-09 22:39:00,34.7,17.5,30.12,WSW,246,0.0,0.0,49,0.00,,CLR,0.20,VWS V14.00,2013-03-10 03:39:00,
2013-03-09 22:44:00,34.9,17.7,30.12,WSW,246,0.0,0.0,49,0.00,,CLR,0.20,VWS V14.00,2013-03-10 03:44:00,
2013-03-09 22:49:00,34.9,17.7,30.12,WSW,246,0.0,0.0,49,0.00,,CLR,0.20,VWS V14.00,2013-03-10 03:49:00,
2013-03-09 22:54:00,34.7,17.0,30.12,WSW,246,0.0,0.0,48,0.00,,CLR,0.20,VWS V14.00,2013-03-10 03:54:00,
2013-03-09 22:59:00,34.5,17.3,30.12,WSW,246,0.0,0.0,49,0.00,,CLR,0.20,VWS V14.00,2013-03-10 03:59:00,
2013-03-09 23:04:00,34.3,16.7,30.12,WSW,246,0.0,0.0,48,0.00,,CLR,0.20,VWS V14.00,2013-03-10 04:04:00,
2013-03-09 23:09:00,34.0,16.8,30.12,WSW,246,0.0,0.0,49,0.00,,CLR,0.20,VWS V14.00,2013-03-10 04:09:00,
2013-03-09 23:14:00,34.0,17.3,30.12,WSW,246,0.0,0.0,50,0.00,,CLR,0.20,VWS V14.00,2013-03-10 04:14:00,
2013-03-09 23:19:00,34.2,17.5,30.12,WSW,246,0.0,0.0,50,0.00,,CLR,0.20,VWS V14.00,2013-03-10 04:19:00,
2013-03-09 23:24:00,34.2,17.5,30.15,WSW,246,0.0,0.0,50,0.00,,CLR,0.20,VWS V14.00,2013-03-10 04:24:00,
2013-03-09 23:29:00,34.0,16.8,30.15,WSW,246,0.0,0.0,49,0.00,,CLR,0.20,VWS V14.00,2013-03-10 04:29:00,
2013-03-09 23:34:00,33.8,16.7,30.15,WSW,246,0.0,0.0,49,0.00,,CLR,0.20,VWS V14.00,2013-03-10 04:34:00,
2013-03-09 23:39:00,33.4,16.8,30.15,WSW,246,0.0,0.0,50,0.00,,CLR,0.20,VWS V14.00,2013-03-10 04:39:00,
2013-03-09 23:44:00,33.4,17.3,30.15,WSW,246,0.0,0.0,51,0.00,,CLR,0.20,VWS V14.00,2013-03-10 04:44:00,
2013-03-09 23:49:00,33.4,17.3,30.15,WSW,246,0.0,0.0,51,0.00,,CLR,0.20,VWS V14.00,2013-03-10 04:49:00,
2013-03-09 23:54:00,33.4,17.3,30.15,WSW,246,0.0,0.0,51,0.00,,CLR,0.20,VWS V14.00,2013-03-10 04:54:00,
2013-03-09 23:59:00,33.3,17.1,30.15,WNW,292,0.0,0.0,51,0.00,,CLR,0.20,VWS V14.00,2013-03-10 04:59:00,